Location: Newark
(52.2090°N, 4.1550°W)
Time: 20:10:33
(UTC+00:00)

Explorer 7 - Pass Details

Date: 20 September 2019
Orbit: 485 x 680 km, 50.3° (Epoch: 17 October)

Event Time Altitude Azimuth Distance (km) Brightness Sun altitude
Rises 22:31:48 0° 209° (SSW) 2,810 - -33.0°
Reaches altitude 10° 22:34:23 10° 195° (SSW) 1,950 - -33.2°
Maximum altitude 22:37:53 23° 143° (SE) 1,347 - -33.4°
Drops below altitude 10° 22:41:33 10° 92° (E) 2,047 - -33.7°
Sets 22:44:20 0° 78° (ENE) 2,989 - -33.9°
